Regional Weather Roundup
Issued by NWS Little Rock, AR

Home | Current Version | Previous Version | Graphics & Text | Print | Product List | Glossary On
Versions: 1 2 3 4 5 6 7 8 9 10 11 12 13 14 15 16 17 18 19 20 21 22 23 24 25 26 27 28 29 30 31 32 33 34 35 36 37 38 39 40 41 42 43 44 45 46 47 48 49 50
000
ASUS44 KLZK 280905
RWRLZK

WEATHER ROUNDUP FOR ARKANSAS
NATIONAL WEATHER SERVICE LITTLE ROCK AR
400 AM CDT SUN AUG 28 2016

NOTE: "FAIR" INDICATES FEW OR NO CLOUDS BELOW 12,000 FEET WITH NO
SIGNIFICANT WEATHER AND/OR OBSTRUCTIONS TO VISIBILITY.

ARZ001-003-010-029-281000-
NORTHWEST ARKANSAS

CITY           SKY/WX    TMP DP  RH WIND       PRES   REMARKS
FAYETTEVILLE   PTCLDY    67  67 100 CALM      30.09F
FORT SMITH     CLEAR     74  71  91 E5        30.05S
HARRISON       CLEAR     68  68 100 CALM      30.12S
BENTONVILLE    CLEAR     73  66  78 SE3       30.10R
ROGERS         CLEAR     72  70  93 E6        30.11R
SILOAM SPGS    CLEAR     72  63  73 CALM      30.10R
HIGHFILL       CLEAR     71  70  96 CALM      30.09S
$$

ARZ004-005-016-281000-
NORTH CENTRAL ARKANSAS

CITY           SKY/WX    TMP DP  RH WIND       PRES   REMARKS
BATESVILLE     CLEAR     73  72  94 CALM      30.07F
FLIPPIN        CLOUDY    72  68  88 CALM      30.07S VSB<1/4
MTN HOME       CLEAR     71  71 100 CALM      30.09F FOG
$$

ARZ040-041-281000-
WEST CENTRAL ARKANSAS

CITY           SKY/WX    TMP DP  RH WIND       PRES   REMARKS
MENA           CLOUDY    70  70 100 CALM      30.08S VSB 3/4
$$

ARZ009-017-025-026-028-281000-
NORTHEAST ARKANSAS

CITY           SKY/WX    TMP DP  RH WIND       PRES   REMARKS
CORNING          N/A     73  73 100 N5        30.09S
JONESBORO      CLEAR     75  71  87 NE5       30.06S
NEWPORT        PTCLDY    73  72  96 NE7       30.06S
WALNUT RIDGE   CLEAR     73  72  94 NE7       30.07S
BLYTHEVILLE    CLEAR     73  72  96 N3        30.07S
$$

ARZ022-023-033-042-044-281000-
CENTRAL ARKANSAS

CITY           SKY/WX    TMP DP  RH WIND       PRES   REMARKS
LITTLE ROCK    PTCLDY    77  72  84 N5        30.04S
N LITTLE ROCK    N/A     75  71  88 NE3       30.02S
JACKSONVILLE   CLEAR     75  74  99 CALM      30.04S
SEARCY         CLEAR     75  73  93 CALM      30.06S
HOT SPRINGS    CLEAR     74  71  91 CALM      30.04F
RUSSELLVILLE   CLEAR     73  72  96 CALM      30.05F FOG
$$

ARZ036-281000-
EAST ARKANSAS

CITY           SKY/WX    TMP DP  RH WIND       PRES   REMARKS
WEST MEMPHIS   CLEAR     74  72  93 CALM      30.04S
$$

ARZ050-053-066-070-073-281000-
SOUTHWEST ARKANSAS

CITY           SKY/WX    TMP DP  RH WIND       PRES   REMARKS
ARKADELPHIA    FAIR      75  73  93 NE3       30.03S
TEXARKANA      CLOUDY    75  72  90 CALM      30.03S
EL DORADO      CLOUDY    74  73  97 CALM      30.02S
DE QUEEN       FOG       71  71 100 CALM      30.03R VSB 1
$$

ARZ056-057-069-281000-
SOUTHEAST ARKANSAS

CITY           SKY/WX    TMP DP  RH WIND       PRES   REMARKS
PINE BLUFF     MOCLDY    74  73  97 N3        30.02F
STUTTGART      MOCLDY    75  70  83 NE6       30.03S
MONTICELLO     CLOUDY    79  74  84 CALM      30.01F

$$





USA.gov is the U.S. government's official web portal to all federal, state and local government web resources and services.